| time (UTC) | temp F | wind direction | speed knots | gust knots | rain 1hr in | rain 24hr in | rain mn in | humidity % | barometer mb |
| 20260503054524 | 53 | 165 | 0.0 | 1.7 | 0.00 | 0.02 | 0.00 | 92 | 1011.3 |
| 20260503053049 | 52 | 165 | 0.0 | 1.7 | 0.00 | 0.02 | 0.00 | 91 | 1011.4 |
| 20260503051521 | 52 | 165 | 0.0 | 1.7 | 0.00 | 0.02 | 0.00 | 91 | 1011.5 |
| 20260503050051 | 52 | 148 | 0.9 | 2.6 | 0.00 | 0.02 | 0.00 | 91 | 1011.4 |
| 20260503044520 | 52 | 164 | 0.9 | 4.3 | 0.00 | 0.02 | 0.00 | 91 | 1011.6 |
| 20260503043051 | 52 | 164 | 0.9 | 2.6 | 0.00 | 0.02 | 0.00 | 91 | 1011.6 |
| 20260503041515 | 52 | 161 | 1.7 | 2.6 | 0.00 | 0.02 | 0.00 | 91 | 1011.6 |
| 20260503040039 | 53 | 155 | 0.0 | 0.0 | 0.00 | 0.02 | 0.00 | 91 | 1011.6 |
| 20260503034507 | 53 | 155 | 0.0 | 0.9 | 0.00 | 0.02 | 0.00 | 91 | 1011.7 |
| 20260503033032 | 53 | 156 | 0.0 | 0.9 | 0.00 | 0.02 | 0.00 | 91 | 1011.8 |
| 20260503031557 | 53 | 156 | 0.0 | 0.9 | 0.00 | 0.02 | 0.00 | 91 | 1011.7 |
| 20260503030039 | 53 | 155 | 1.7 | 2.6 | 0.00 | 0.02 | 0.00 | 90 | 1011.7 |
| 20260503024557 | 53 | 158 | 1.7 | 4.3 | 0.00 | 0.02 | 0.00 | 91 | 1011.8 |
| 20260503023027 | 53 | 134 | 0.0 | 1.7 | 0.00 | 0.02 | 0.00 | 90 | 1011.8 |
| 20260503021557 | 54 | 135 | 0.9 | 1.7 | 0.00 | 0.02 | 0.00 | 90 | 1012.0 |
| 20260503020023 | 54 | 135 | 0.0 | 0.0 | 0.00 | 0.02 | 0.00 | 90 | 1012.1 |
| 20260503014604 | 54 | 135 | 0.0 | 0.0 | 0.00 | 0.02 | 0.00 | 90 | 1012.2 |
| 20260503013013 | 54 | 135 | 0.0 | 0.0 | 0.00 | 0.02 | 0.00 | 90 | 1012.3 |
| 20260503011539 | 54 | 135 | 0.0 | 0.0 | 0.00 | 0.02 | 0.00 | 90 | 1012.4 |
| 20260503010023 | 54 | 135 | 0.9 | 2.6 | 0.00 | 0.02 | 0.00 | 90 | 1012.5 |
| 20260503004550 | 54 | 135 | 0.0 | 1.7 | 0.00 | 0.02 | 0.00 | 89 | 1012.7 |
| 20260503003038 | 54 | 135 | 0.0 | 0.0 | 0.00 | 0.02 | 0.00 | 89 | 1012.8 |
| 20260503001556 | 55 | 135 | 0.0 | 0.0 | 0.00 | 0.02 | 0.00 | 89 | 1012.8 |
| 20260503000104 | 55 | 135 | 0.0 | 1.7 | 0.00 | 0.02 | 0.00 | 89 | 1013.0 |
| 20260502234531 | 56 | 135 | 0.0 | 0.0 | 0.00 | 0.02 | 0.00 | 89 | 1013.0 |
| 20260502233052 | 56 | 135 | 0.0 | 0.0 | 0.00 | 0.02 | 0.00 | 89 | 1013.0 |
| 20260502231523 | 56 | 135 | 0.0 | 0.0 | 0.00 | 0.02 | 0.00 | 89 | 1013.1 |
| 20260502230045 | 56 | 136 | 0.0 | 0.9 | 0.00 | 0.02 | 0.00 | 89 | 1013.0 |
| 20260502224521 | 56 | 135 | 0.0 | 0.9 | 0.00 | 0.02 | 0.00 | 88 | 1013.1 |
| 20260502223003 | 56 | 135 | 0.9 | 1.7 | 0.00 | 0.02 | 0.00 | 88 | 1013.2 |
| 20260502221550 | 56 | 135 | 0.0 | 1.7 | 0.00 | 0.02 | 0.00 | 88 | 1013.2 |
| 20260502220035 | 56 | 134 | 0.0 | 1.7 | 0.00 | 0.02 | 0.00 | 88 | 1013.3 |
| 20260502214507 | 56 | 135 | 1.7 | 3.5 | 0.00 | 0.02 | 0.02 | 87 | 1013.4 |
| 20260502213040 | 57 | 134 | 1.7 | 3.5 | 0.00 | 0.02 | 0.02 | 87 | 1013.4 |
| 20260502211509 | 57 | 144 | 0.9 | 3.5 | 0.00 | 0.02 | 0.02 | 87 | 1013.4 |
| 20260502210031 | 57 | 145 | 1.7 | 3.5 | 0.00 | 0.02 | 0.02 | 86 | 1013.4 |
| 20260502204551 | 58 | 126 | 1.7 | 3.5 | 0.00 | 0.02 | 0.02 | 85 | 1013.5 |
| 20260502203009 | 58 | 103 | 1.7 | 2.6 | 0.00 | 0.02 | 0.02 | 83 | 1013.6 |
| 20260502201542 | 59 | 48 | 0.0 | 0.9 | 0.00 | 0.02 | 0.02 | 81 | 1013.7 |
| 20260502200007 | 60 | 47 | 0.0 | 1.7 | 0.00 | 0.02 | 0.02 | 80 | 1013.6 |
| 20260502194531 | 61 | 47 | 0.9 | 2.6 | 0.00 | 0.02 | 0.02 | 79 | 1013.5 |
| 20260502193058 | 62 | 67 | 1.7 | 2.6 | 0.00 | 0.02 | 0.02 | 78 | 1013.4 |
| 20260502191510 | 63 | 127 | 0.0 | 2.6 | 0.00 | 0.02 | 0.02 | 76 | 1013.4 |
| 20260502190045 | 63 | 128 | 1.7 | 6.1 | 0.00 | 0.02 | 0.02 | 76 | 1013.5 |
| 20260502184505 | 64 | 124 | 3.5 | 6.1 | 0.00 | 0.02 | 0.02 | 75 | 1013.6 |
| 20260502183029 | 64 | 136 | 2.6 | 7.0 | 0.00 | 0.02 | 0.02 | 74 | 1013.5 |
| 20260502181600 | 64 | 107 | 4.3 | 9.6 | 0.02 | 0.02 | 0.02 | 73 | 1013.6 |
| 20260502163029 | 75 | 163 | 2.6 | 7.8 | 0.00 | 0.01 | 0.01 | 54 | 1013.7 |
| 20260502161543 | 76 | 213 | 1.7 | 6.1 | 0.00 | 0.01 | 0.01 | 53 | 1013.8 |
| 20260502151608 | 78 | 205 | 2.6 | 7.8 | 0.00 | 0.01 | 0.01 | 51 | 1014.4 |
| 20260502123026 | 75 | 183 | 1.7 | 14.8 | 0.00 | 0.01 | 0.01 | 60 | 1017.0 |
| 20260502121550 | 73 | 209 | 2.6 | 8.7 | 0.00 | 0.01 | 0.01 | 59 | 1017.3 |
| 20260502114513 | 74 | 147 | 3.5 | 7.0 | 0.00 | 0.01 | 0.01 | 59 | 1017.6 |
| 20260502113043 | 73 | 192 | 1.7 | 6.1 | 0.00 | 0.01 | 0.01 | 60 | 1017.8 |
| 20260502111556 | 73 | 249 | 5.2 | 8.7 | 0.00 | 0.01 | 0.01 | 59 | 1018.1 |
| 20260502110023 | 73 | 217 | 2.6 | 8.7 | 0.00 | 0.01 | 0.01 | 59 | 1018.1 |
| 20260502104539 | 73 | 222 | 4.3 | 11.3 | 0.00 | 0.01 | 0.01 | 60 | 1018.1 |
| 20260502103010 | 72 | 263 | 6.1 | 11.3 | 0.00 | 0.01 | 0.01 | 61 | 1018.3 |
| 20260502101603 | 72 | 186 | 6.1 | 11.3 | 0.00 | 0.01 | 0.01 | 61 | 1018.4 |
| 20260502091519 | 69 | 194 | 3.5 | 7.0 | 0.00 | 0.01 | 0.01 | 69 | 1018.9 |
| 20260502080103 | 60 | 140 | 1.7 | 4.3 | 0.00 | 0.01 | 0.01 | 72 | 1019.3 |
| 20260502070032 | 51 | 136 | 0.0 | 0.0 | 0.00 | 0.01 | 0.01 | 89 | 1019.5 |
| 20260502064514 | 50 | 136 | 0.0 | 1.7 | 0.00 | 0.01 | 0.01 | 89 | 1019.6 |
| 20260502063055 | 49 | 136 | 0.0 | 1.7 | 0.00 | 0.01 | 0.01 | 88 | 1019.7 |
| 20260502061532 | 48 | 137 | 0.9 | 2.6 | 0.00 | 0.01 | 0.01 | 88 | 1019.6 |
| 20260502060012 | 48 | 136 | 0.0 | 1.7 | 0.00 | 0.01 | 0.01 | 88 | 1019.7 |